This is the latest recevied weather packets stored in our database for station/object N4YH-13. If no packets are shown the sender has not sent any weather packets the latest 10 day(s).
| Time | Temp. | Humidity | Pressure | Rain* | Wind** | Luminosity | Snow |
|---|---|---|---|---|---|---|---|
| 1776966124 | 23.89° C | 48% | 1016.8 hPa | 0 mm | - | - | - |
| 1776966004 | 23.89° C | 47% | 1016.8 hPa | 0 mm | - | - | - |
| 1776965763 | 23.89° C | 45% | 1016.9 hPa | 0 mm | - | - | - |
| 1776965643 | 24.44° C | 46% | 1016.9 hPa | 0 mm | - | - | - |
| 1776965523 | 23.89° C | 46% | 1016.8 hPa | 0 mm | - | - | - |
| 1776965404 | 23.89° C | 48% | 1017.1 hPa | 0 mm | - | - | - |
| 1776965284 | 23.89° C | 46% | 1017.1 hPa | 0 mm | - | - | - |
| 1776965164 | 23.89° C | 48% | 1017.1 hPa | 0 mm | - | - | - |
| 1776965044 | 23.89° C | 48% | 1017.1 hPa | 0 mm | - | - | - |
| 1776964923 | 23.33° C | 51% | 1017.1 hPa | 0 mm | - | - | - |
| 1776964803 | 23.33° C | 54% | 1017.1 hPa | 0 mm | - | - | - |
| 1776964683 | 23.33° C | 52% | 1017.1 hPa | 0 mm | - | - | - |
| 1776964564 | 23.33° C | 51% | 1017.1 hPa | 0 mm | - | - | - |
| 1776964444 | 23.33° C | 47% | 1017.2 hPa | 0 mm | - | - | - |
| 1776964324 | 23.33° C | 52% | 1017.2 hPa | 0 mm | - | - | - |
| 1776964204 | 23.33° C | 51% | 1017.2 hPa | 0 mm | - | - | - |
| 1776964084 | 23.33° C | 51% | 1017.2 hPa | 0 mm | - | - | - |
| 1776963963 | 23.33° C | 52% | 1017.2 hPa | 0 mm | - | - | - |
| 1776963843 | 23.33° C | 55% | 1017.2 hPa | 0 mm | - | - | - |
| 1776963723 | 23.33° C | 54% | 1017.1 hPa | 0 mm | - | - | - |
| 1776963604 | 23.33° C | 54% | 1017.8 hPa | 0 mm | - | - | - |
| 1776963484 | 23.33° C | 54% | 1017.8 hPa | 0 mm | - | - | - |
| 1776963364 | 23.33° C | 56% | 1017.6 hPa | 0 mm | - | - | - |
| 1776963244 | 22.78° C | 54% | 1017.6 hPa | 0 mm | - | - | - |
| 1776963123 | 22.78° C | 55% | 1017.6 hPa | 0 mm | - | - | - |
* Rain latest hour (hover to see other rain measurements)
** Current wind speed in m/s (hover to see current wind gust speed)